Location: Oshawa
(43.9000°N, 78.8670°W)
Time: 18:32:27
(UTC-04:00)

Daily predictions for brighter satellites

Satellite Brightness Start Highest point End
(mag) Time Altitude Azimuth Time Altitude Azimuth Time Altitude Azimuth
Cosmos 2333 Rocket 3.6 21:13:07 10° SW 21:18:30 45° WNW 21:23:57 10° NNE
Okean 2 3.5 21:14:36 10° S 21:18:43 62° E 21:22:53 10° NNE
Cosmos 2297 4.1 21:13:04 10° NNW 21:18:45 70° WSW 21:24:26 10° SSE
Meteor 1-19 Rocket 4.3 21:13:14 10° S 21:18:52 87° WNW 21:24:29 10° N
Cosmos 1726 Rocket 4.1 21:22:13 10° NNW 21:26:38 61° W 21:30:58 10° S
H-2A R/B 4.3 21:26:43 10° SSW 21:30:24 37° W 21:34:08 10° NNW
YAOGAN 6 4.2 21:28:07 10° ESE 21:31:02 22° ENE 21:33:58 10° NNE
ISS -1.5 21:31:40 10° SSE 21:33:24 14° SE 21:35:06 10° E
Cosmos 2285 Rocket 4.2 21:27:26 10° NNW 21:33:45 75° WSW 21:40:04 10° S
Cosmos 1943 Rocket 4.3 21:34:02 10° NNE 21:36:29 13° NE 21:38:56 10° ENE
Cosmos 1461 2.9 21:33:55 10° NNW 21:38:16 79° NE 21:42:09 11° SE
CZ-2C R/B 2.6 21:38:17 10° SSW 21:40:17 25° W 21:42:18 10° NW
Cosmos 2058 Rocket 3.7 21:36:01 10° NNW 21:40:20 56° W 21:44:36 10° S
Cosmos 494 Rocket 4.2 21:35:32 10° SSW 21:40:38 76° WNW 21:45:47 10° NNE
SPOT 5 2.7 21:36:42 10° SSE 21:41:03 61° ENE 21:45:20 10° N
SL-8 R/B 4.5 21:38:44 10° W 21:43:29 55° N 21:48:15 10° ENE
Cosmos 1464 Rocket 4.2 21:38:17 10° N 21:44:25 76° W 21:50:33 10° S
Cosmos 1602 Rocket 3.6 21:42:55 10° S 21:47:21 67° E 21:51:48 10° NNE
CZ-4 SHROUD 3.2 21:46:45 10° SSE 21:49:52 84° E 21:53:03 10° NNW
H-2A R/B 3.7 21:48:25 10° ESE 21:51:47 18° ENE 21:55:10 10° NNE
GRACE-1 3.9 21:49:36 10° N 21:52:28 69° E 21:55:07 11° S
GRACE-2 3.9 21:50:03 10° N 21:52:54 70° E 21:55:33 12° S
Lacrosse 5 4.3 21:48:55 10° WNW 21:53:05 25° NNW 21:57:16 10° NE
deb Chang Zheng 4 4.2 21:48:45 10° N 21:53:06 60° WNW 21:57:23 10° SSW
ALOS 4.4 21:49:29 10° SSW 21:53:18 25° W 21:57:08 10° NW
Aureole 2 Rocket 3.0 21:50:41 10° SSW 21:54:35 68° WNW 21:58:09 10° NNE
Cosmos 1812 Rocket 3.6 21:52:13 10° N 21:56:35 65° E 22:00:27 13° SSE
SPOT 1/Viking Rocket 3.9 21:55:42 14° SE 22:00:03 52° ENE 22:05:03 10° N
Cosmos 2034 Rocket 4.3 21:56:38 10° NNW 22:03:00 73° W 22:09:17 10° S
Terra 3.5 22:00:40 12° ESE 22:03:41 20° ENE 22:07:09 10° NNE
Cosmos 1634 Rocket 4.4 21:58:22 10° N 22:04:17 45° ENE 22:08:55 16° SE
ATLAS CENTAUR R/B 4.4 22:05:30 10° W 22:09:38 25° NW 22:13:48 10° NNE
Atlas Centaur 2 3.9 22:03:58 10° SW 22:10:20 28° SSE 22:15:35 15° ESE
USA 245 4.3 22:05:43 14° SSE 22:10:54 67° ENE 22:16:04 10° N
H-2A R/B 3.7 22:07:13 10° SSW 22:10:59 31° W 22:14:53 10° NNW
SeaSat 1 2.7 22:07:21 13° SSE 22:11:41 64° WSW 22:16:37 10° NNW
Cosmos 2369 Rocket 2.7 22:07:03 10° NNW 22:12:33 47° ENE 22:16:29 18° SE
DEBRIS 3.7 22:10:04 10° WNW 22:14:16 29° SW 22:15:34 19° S
ARGOS 3.4 22:10:34 17° SE 22:14:39 58° ENE 22:19:59 10° N
CZ-4C R/B 4.2 22:12:56 19° SE 22:15:25 38° ENE 22:19:13 10° N
Cosmos 1666 4.4 22:12:12 10° NNW 22:15:42 32° W 22:19:10 10° SSW
CZ-4B R/B 3.5 22:12:01 10° NNE 22:17:05 72° ESE 22:22:16 10° S
PSLV R/B 4.4 22:16:10 12° SSW 22:18:50 37° W 22:21:46 10° NNW
SL-16 R/B 3.9 22:15:08 10° WSW 22:20:18 36° NW 22:25:30 10° N
Cosmos 1626 Rocket 4.3 22:16:07 10° SSW 22:20:28 55° W 22:24:51 10° N
NOAA 11 4.2 22:22:44 20° SSE 22:26:31 67° ENE 22:31:55 10° N
Meteor 2-12 Rocket 4.5 22:21:19 10° N 22:27:27 84° W 22:32:34 15° S
COSMOS 2455 2.8 22:21:54 10° SSW 22:27:52 76° ESE 22:33:54 10° NE
Cosmos 1953 4.1 22:30:26 10° NNE 22:33:12 18° ENE 22:34:19 16° E
Lacrosse 5 rocket 4.0 22:31:26 10° WNW 22:34:36 22° NNW 22:37:54 10° NNE
Meteor 1-22 Rocket 4.3 22:31:06 10° N 22:36:37 63° ENE 22:40:02 24° SSE
Cosmos 1953 Rocket 3.7 22:35:33 26° SSE 22:37:49 54° E 22:42:10 10° NNE
ATLAS 3B R/B 3.1 22:30:51 10° S 22:38:12 50° ESE 22:45:24 10° NE
Cosmos 2346 Rocket 4.4 22:36:44 14° S 22:42:05 80° E 22:48:14 10° N
IGS 5A 4.2 22:43:55 28° ESE 22:45:27 39° ENE 22:49:21 10° N
Cosmos 1515 4.3 22:43:54 15° SSW 22:47:01 57° W 22:50:51 10° N
Cosmos 1066 Rocket 4.2 22:43:48 16° S 22:48:27 85° E 22:54:17 10° NNE
USA 234 3.5 22:45:49 24° SSE 22:49:54 59° SW 22:56:23 10° NW
Cosmos 407 Rocket 3.6 22:49:26 25° S 22:52:22 56° ESE 22:57:30 10° NNE
Cosmos-2242 3.7 22:52:54 10° N 22:57:05 41° ENE 22:58:21 33° ESE
Cosmos 1346 Rocket 2.6 22:55:59 34° S 22:57:38 86° E 23:01:35 10° N
DELTA 2 DEB (DPAF) 4.2 22:56:14 30° S 22:58:25 74° WSW 23:02:55 10° NNW
Lacrosse 4 Rocket 1.4 22:59:11 42° SSE 23:00:08 53° ESE 23:04:08 10° NE
YAOGAN 6 4.4 23:02:20 16° SW 23:04:29 26° W 23:07:42 10° NW
ISS -3.4 23:06:09 10° WSW 23:09:25 82° NNW 23:12:42 10° ENE
BREEZE-M DEB (TANK) 2.6 23:06:59 10° W 23:09:34 47° NNW 23:09:51 42° N
PSLV R/B 3.9 23:06:40 10° WSW 23:09:23 42° SW 23:09:23 42° SW
Cosmos 1954 Rocket 4.3 23:09:47 36° SSE 23:11:24 48° ESE 23:16:29 10° NNE
Cosmos 1758 Rocket 3.6 23:10:06 32° SSW 23:12:07 79° W 23:16:31 10° N
USA 238 DEB 4.3 23:10:59 30° SE 23:12:58 35° ESE 23:19:14 10° NE
USA 238 4.4 23:11:09 30° SE 23:13:04 35° ESE 23:19:21 10° NE
Cosmos 1943 3.4 23:07:49 10° SSW 23:13:28 75° WNW 23:19:12 10° NNE
Cosmos 1842 3.3 23:13:33 53° SE 23:14:08 62° E 23:18:02 10° NNE
Meteor 1-21 4.2 23:11:19 28° S 23:14:33 83° E 23:20:24 10° NNE
CARTOSAT-1 3.5 23:14:29 43° S 23:15:53 80° WSW 23:20:13 10° NNW
Cosmos 1758 3.6 23:14:20 10° N 23:18:22 53° ENE 23:19:02 47° ESE
Cosmos 1943 Rocket 2.3 23:15:51 10° NNW 23:21:22 65° ENE 23:23:31 37° SE
Spot 2 4.3 23:18:35 10° NNE 23:23:21 86° ESE 23:25:25 36° SSW
Spot 4 3.7 23:22:16 44° SSE 23:23:50 89° W 23:28:38 10° NNW
Landsat 7 4.4 23:23:17 30° SSW 23:25:17 49° W 23:29:55 10° NNW
SL-8 R/B 4.4 23:21:48 10° WNW 23:26:34 53° N 23:30:32 14° E
H-2A R/B 2.2 23:28:49 36° SSW 23:30:41 60° W 23:35:42 10° NNW
SAR-Lupe-2 4.4 23:30:47 38° SW 23:31:19 41° W 23:34:45 10° NNW
Cosmos 1766 4.0 23:29:32 10° NNW 23:33:25 47° W 23:34:21 39° SW
Cosmos 1092 Rocket 4.4 23:33:02 36° SE 23:35:03 48° E 23:41:03 10° NNE
Cosmos 1656 Rocket 4.4 23:33:02 10° NNW 23:38:30 45° ENE 23:40:42 31° ESE
Cosmos 1842 Rocket 3.6 23:36:40 10° N 23:41:01 62° E 23:41:34 56° ESE
Terra 2.4 23:39:33 36° SSW 23:41:05 49° W 23:45:43 10° NNW
Cosmos 1570 Rocket 4.2 23:36:41 10° NNW 23:42:02 66° ENE 23:43:34 45° SE
Cosmos 1850 Rocket 4.2 23:46:11 47° SE 23:46:49 49° ESE 23:51:51 10° NNE
Nadezhda 4 Rocket 3.9 23:45:01 40° S 23:47:30 80° E 23:53:52 10° N
CZ-4C R/B 3.8 23:54:52 18° E 23:54:52 18° E 23:57:46 10° ENE
